Lapse_Rate
7.2 6.8 6.5 6.5 6.5 6.4 6.4 6.4 6.4 6.1 6.3 6.5 6.5 6.6 6.5 6.6 6.7 6.7 6.8 6.9 6.9 7.0 7.0 6.9 7.0 6.9 6.8 6.7 6.7 6.6 6.7 6.9 6.6 6.6 6.6 6.6 6.5 6.6 6.5 6.5 6.5 6.6 6.6
7.0 6.8 6.6 6.5 6.4 6.4 6.3 6.2 6.1 6.0 6.2 6.4 6.4 6.5 6.5 6.5 6.7 6.7 6.7 6.8 6.8 6.9 6.9 6.8 7.0 7.1 6.9 6.8 6.8 6.7 6.6 6.7 6.6 6.6 6.5 6.5 6.5 6.5 6.5 6.6 6.7 6.8 6.7
6.8 6.6 6.5 6.5 6.5 6.4 6.3 6.1 6.0 5.9 6.0 6.2 6.3 6.5 6.5 6.6 6.5 6.6 6.6 6.6 6.7 6.8 6.8 6.9 7.0 7.1 7.1 7.0 6.8 6.8 6.8 6.8 6.7 6.7 6.8 6.7 6.6 6.6 6.6 6.7 6.6 6.6 6.7
7.0 6.6 6.4 6.5 6.5 6.5 6.4 6.2 6.1 5.9 5.9 6.0 6.2 6.3 6.5 6.5 6.5 6.5 6.4 6.5 6.7 6.7 6.8 6.7 6.9 7.0 6.8 7.1 7.0 6.7 6.7 6.8 6.8 6.9 6.8 6.6 6.6 6.5 6.5 6.4 6.5 6.5 6.5
7.2 6.7 6.4 6.4 6.4 6.5 6.5 6.3 6.1 6.1 6.0 6.1 6.1 6.2 6.5 6.5 6.4 6.5 6.5 6.5 6.4 6.3 6.5 6.7 6.6 6.3 6.2 6.5 6.6 6.5 6.6 6.6 6.6 6.5 6.6 6.5 6.4 6.4 6.5 6.5 6.5 6.5 6.5
7.7 7.3 6.9 6.4 6.1 6.2 6.4 6.4 6.3 6.1 5.9 6.1 6.2 6.2 6.3 6.4 6.5 6.6 6.5 6.4 6.3 6.3 6.5 6.2 6.1 5.9 5.8 5.9 6.1 6.2 6.6 6.7 6.7 6.6 6.7 6.5 6.5 6.4 6.4 6.6 6.5 6.4 6.4
7.6 7.0 6.8 6.5 6.6 6.5 6.4 6.4 6.2 6.1 6.0 6.2 6.4 6.3 6.3 6.4 6.5 6.7 6.7 6.5 6.2 6.5 6.4 6.2 6.1 5.8 5.7 5.7 5.9 5.9 6.3 6.4 6.4 6.4 6.7 6.4 6.3 6.3 6.4 6.2 6.3 6.5 6.6
7.3 7.3 7.0 6.6 6.6 6.6 6.6 6.4 6.2 6.2 6.3 6.3 6.4 6.4 6.4 6.5 6.7 6.8 6.6 6.4 6.2 6.5 6.4 6.3 6.2 5.8 5.7 5.5 5.8 5.8 6.2 6.4 6.5 6.4 6.4 6.4 6.2 6.2 6.2 5.9 6.2 6.2 6.3
7.5 7.4 7.3 6.8 6.6 6.4 6.4 6.3 6.3 6.4 6.5 6.5 6.6 6.5 6.6 6.7 6.7 6.7 6.6 6.6 6.5 6.3 6.3 6.2 6.1 6.1 5.8 5.6 5.7 5.9 5.9 5.8 6.0 6.3 6.5 6.3 6.0 5.9 5.8 5.8 6.1 6.3 6.2
7.7 7.4 7.1 6.9 6.8 6.8 6.4 6.4 6.4 6.4 6.5 6.7 6.9 6.9 6.7 6.6 6.6 6.6 6.6 6.5 6.4 6.3 6.2 6.3 6.2 6.2 5.9 5.9 5.7 5.7 5.7 5.6 5.7 5.7 6.1 6.1 5.9 5.9 5.8 5.8 5.9 5.9 6.1
7.6 7.4 7.1 6.9 6.7 7.1 6.8 6.4 6.5 6.7 6.8 6.9 7.0 7.0 6.7 6.5 6.7 6.7 6.7 6.5 6.3 6.3 6.3 6.3 6.3 6.2 6.1 6.0 5.9 5.6 5.6 5.7 5.7 5.8 6.1 6.0 5.8 5.7 5.7 5.6 5.7 5.7 5.9
7.6 7.7 7.5 7.0 6.6 6.9 7.1 6.8 6.7 6.5 6.7 6.7 6.7 6.5 6.5 6.5 6.5 6.5 6.4 6.3 6.3 6.2 6.1 6.0 6.0 6.0 6.0 5.8 5.9 5.9 5.8 5.8 5.9 6.0 6.0 5.8 5.6 5.5 5.8 5.6 5.6 5.7 5.7
7.3 7.7 8.0 7.7 7.2 7.2 7.3 7.0 6.6 6.6 6.9 6.7 6.7 6.4 6.0 6.1 6.1 6.0 6.1 6.1 5.8 5.8 5.9 6.0 6.0 6.0 5.9 5.8 5.7 5.6 5.6 5.8 5.9 6.0 5.9 5.7 5.6 5.7 5.7 5.6 5.6 5.5 5.7
6.9 7.3 7.6 7.8 7.5 7.0 7.3 7.2 6.7 6.5 6.4 6.5 6.3 6.0 5.7 5.5 5.5 5.6 5.7 5.7 5.6 5.6 5.4 5.6 5.6 5.6 5.6 5.5 5.4 5.1 5.4 5.9 5.8 6.0 5.6 5.7 6.0 5.8 5.7 5.6 5.3 5.6 5.8
6.7 7.1 7.4 7.5 6.8 6.4 6.5 6.6 6.5 6.3 5.9 5.8 6.2 5.8 5.0 4.7 4.8 5.1 4.8 4.6 5.3 5.2 4.8 5.1 5.3 4.4 4.7 5.3 5.2 5.3 5.8 5.8 5.8 5.7 5.6 6.0 5.9 5.8 5.5 5.3 5.2 5.4 5.6
6.7 7.0 7.4 6.6 6.6 6.5 6.8 6.6 6.7 6.3 6.1 6.0 5.4 5.1 3.9 4.1 4.0 4.3 4.5 4.0 4.8 4.7 4.0 4.1 4.4 4.5 4.7 5.3 5.3 5.7 5.9 5.6 5.7 5.7 5.7 6.0 6.0 5.7 5.4 5.3 5.4 5.5 5.5
7.0 7.2 6.3 6.3 6.5 6.6 6.6 6.6 6.5 6.3 6.0 6.0 5.9 5.2 3.4 3.0 3.1 3.2 3.6 3.3 4.2 4.3 3.4 3.4 4.2 4.0 4.5 5.2 5.2 5.5 5.3 5.4 5.7 5.5 5.7 5.8 5.8 5.5 5.4 5.4 5.3 5.3 5.3
6.9 6.5 6.2 6.1 6.1 6.5 6.4 6.4 6.2 6.1 6.2 5.7 5.5 5.4 4.1 3.9 3.5 3.2 3.8 3.2 3.7 3.7 3.1 4.1 4.4 4.0 4.8 5.1 5.1 5.2 5.2 5.5 5.7 5.5 5.6 5.7 5.6 5.3 5.3 5.3 5.2 5.2 5.3
6.2 5.9 6.0 6.1 6.2 6.2 6.1 5.9 5.9 5.8 5.4 5.4 5.0 5.3 5.0 4.4 3.9 4.0 3.4 2.9 3.2 3.2 4.1 4.6 4.5 4.0 4.8 5.1 5.1 5.1 5.0 5.3 5.2 5.5 5.6 5.4 5.3 5.3 5.4 5.2 5.2 5.2 5.3
5.7 5.9 6.1 6.2 6.1 5.8 5.6 5.6 5.6 5.6 5.7 5.6 5.4 5.1 4.8 4.5 4.1 4.1 3.8 3.0 3.1 3.4 4.0 4.5 4.3 4.6 5.0 5.2 5.0 5.0 5.2 5.2 4.9 5.3 5.2 5.0 5.2 5.1 5.3 5.1 5.0 5.2 5.1
6.2 5.7 5.6 5.6 5.8 5.6 5.5 5.4 5.6 5.9 5.9 5.7 5.4 5.2 5.1 4.4 4.1 3.8 3.9 2.7 2.7 3.7 4.3 4.6 4.0 4.9 5.2 5.3 5.2 4.8 4.9 5.1 5.0 4.9 4.9 5.1 5.2 5.1 5.0 4.9 5.0 5.1 5.2
5.7 5.5 5.5 5.6 5.4 5.4 5.5 5.7 5.8 5.3 5.5 5.5 5.3 5.1 4.8 4.2 4.0 3.8 2.8 2.6 3.7 4.3 4.4 4.8 4.2 4.7 5.1 5.0 4.8 4.7 4.9 5.0 5.1 4.9 5.0 5.0 5.1 5.1 5.1 5.3 5.2 5.1 5.3
5.6 5.6 5.4 5.2 5.0 5.1 5.5 5.8 5.8 5.4 5.2 5.3 5.2 5.0 4.7 4.2 4.4 4.4 3.0 3.2 3.6 4.3 4.3 4.3 4.2 3.9 4.3 4.7 4.5 4.6 4.7 4.9 4.8 5.0 5.1 5.0 5.1 5.1 5.3 5.4 5.2 5.2 5.3
5.8 5.9 5.7 5.5 5.6 5.7 5.9 5.8 5.4 5.3 5.2 5.1 5.1 4.3 4.3 4.4 4.3 3.9 3.6 3.1 3.6 3.7 3.7 2.9 3.6 3.7 3.8 3.7 3.9 4.2 4.5 4.6 4.9 5.1 5.1 5.2 5.1 5.2 5.3 5.2 5.1 5.2 5.2
6.2 6.4 6.2 6.1 6.0 6.1 6.3 5.8 5.5 5.7 5.3 5.3 5.0 4.8 4.6 4.3 3.9 3.8 4.0 4.0 3.8 4.0 4.2 3.2 3.1 3.2 3.3 3.8 4.2 4.4 4.8 4.8 4.9 5.0 5.1 5.1 5.2 5.3 5.3 5.2 5.2 5.1 5.4
5.7 6.3 6.6 6.7 6.6 6.9 6.8 6.3 5.8 5.6 5.6 5.4 5.3 4.7 4.7 4.5 4.1 3.7 4.1 4.2 4.1 4.5 4.2 3.9 3.8 3.4 3.3 3.6 4.3 4.5 4.6 4.8 4.8 4.9 5.0 5.4 5.3 5.2 5.3 5.1 5.1 5.2 5.5
Wind_Speed
8 11 10 12 11 14 12 10 11 8 12 18 17 17 14 14 17 17 17 16 15 16 18 18 17 17 16 18 19 18 18 18 18 19 20 21 22 22 22 22 22 21 22
11 9 7 8 9 14 13 10 7 6 8 16 14 16 15 15 16 18 19 15 13 16 17 18 17 17 17 17 19 18 17 17 17 18 18 19 19 20 19 21 21 20 21
15 12 7 8 11 14 15 11 7 10 7 12 11 14 15 15 14 17 18 15 15 14 16 17 17 17 17 16 16 18 18 16 17 16 16 16 17 18 19 20 20 20 19
21 14 9 8 14 13 12 7 7 6 7 8 8 7 9 13 14 16 16 17 14 15 16 15 15 16 15 15 16 17 18 16 14 13 15 16 17 18 19 19 19 19 19
22 15 8 10 16 12 7 8 4 10 9 7 8 6 6 8 12 13 13 15 15 16 16 15 15 15 14 13 14 14 16 14 13 13 15 15 16 17 18 18 18 18 17
25 19 11 10 14 7 8 8 9 4 9 10 10 6 5 6 11 10 11 14 16 17 16 15 16 14 13 12 15 12 15 14 13 13 14 14 16 16 17 17 16 16 18
22 16 9 10 12 12 11 10 9 12 4 9 8 6 4 4 5 5 12 13 13 16 18 18 15 13 11 11 12 11 14 15 13 12 13 15 15 15 16 14 16 15 17
22 15 14 13 14 11 12 12 13 8 3 11 8 5 4 1 3 2 6 8 10 14 14 15 15 16 14 11 9 12 13 12 12 11 11 14 13 14 15 13 14 16 15
20 18 14 14 13 11 12 14 15 16 12 9 17 5 4 4 5 1 2 5 7 7 12 15 15 15 15 12 10 10 11 11 11 11 12 13 13 13 12 12 13 14 14
18 17 15 16 15 11 14 15 13 13 13 15 13 2 2 6 4 3 2 2 5 7 8 13 14 14 15 13 11 11 11 10 11 9 11 13 13 12 11 11 12 13 14
19 18 17 16 15 12 13 16 15 15 13 14 14 3 3 2 3 4 6 4 1 2 8 14 15 14 14 15 13 11 10 11 10 10 9 12 12 11 11 11 12 12 13
14 17 18 17 16 14 14 13 14 16 14 13 12 5 6 4 5 4 4 11 8 1 3 10 13 13 16 17 12 13 11 12 11 10 10 12 11 12 12 11 12 12 13
12 18 20 17 14 15 14 13 13 12 13 13 14 8 5 3 4 3 7 9 6 2 2 1 11 16 16 15 17 15 13 12 11 10 10 11 12 11 12 12 11 12 13
15 16 18 16 16 16 13 13 11 10 12 12 13 8 4 3 3 6 8 14 6 4 2 4 2 12 15 17 18 17 15 13 11 10 9 11 12 12 12 11 11 12 14
12 14 17 17 16 17 17 16 11 11 10 10 8 8 4 3 3 4 10 13 11 7 6 5 3 10 15 18 18 18 17 15 13 11 10 12 12 12 11 11 11 13 14
14 14 15 15 14 15 15 15 10 9 11 6 5 7 4 4 5 4 10 9 2 6 6 3 2 5 16 15 19 20 18 17 14 11 12 13 13 12 11 11 12 12 13
15 16 15 14 13 13 12 12 9 10 11 9 8 10 7 6 5 6 7 5 4 4 8 2 3 8 7 13 15 16 17 18 16 13 12 14 13 11 11 11 11 12 12
15 16 14 13 11 11 12 11 11 9 11 9 7 9 7 4 5 3 6 7 7 4 5 9 3 6 5 16 17 13 14 13 17 15 14 14 13 11 10 11 10 10 11
15 14 14 14 14 14 14 13 14 13 13 13 13 13 12 11 7 4 8 7 5 5 7 6 4 6 4 10 9 10 10 11 12 16 15 14 13 11 11 9 9 8 11
15 14 13 13 13 13 13 12 12 12 12 12 13 13 15 15 16 13 8 7 7 7 8 9 7 9 8 8 9 9 6 4 5 13 14 13 13 11 10 9 7 7 10
10 10 12 10 12 11 10 13 12 13 13 11 11 12 14 16 16 13 8 8 10 7 9 9 9 9 8 9 11 7 5 4 0 3 4 9 13 13 9 6 5 7 9
10 11 11 13 13 9 15 18 15 10 11 12 11 9 10 17 13 11 9 15 16 13 13 9 9 13 12 10 6 9 7 6 3 6 2 3 11 6 11 8 5 7 7
9 8 8 9 9 7 16 17 15 9 10 10 11 11 9 4 7 6 10 14 14 18 18 15 14 13 10 14 12 11 10 6 3 2 3 2 4 3 14 11 7 6 4
11 11 9 10 10 8 19 19 17 10 9 10 12 12 11 9 8 10 8 8 5 5 3 0 11 11 6 13 14 6 7 5 4 3 1 2 0 2 11 13 9 6 3
6 7 8 10 10 7 17 17 17 10 8 9 8 9 10 10 14 17 11 10 8 5 10 14 13 12 18 21 22 11 7 8 2 2 1 2 2 2 2 6 13 9 5
4 5 6 5 8 8 17 21 17 9 10 8 8 8 16 14 20 20 11 10 9 7 10 11 11 15 17 19 15 13 9 9 3 1 3 3 1 2 0 4 10 13 8
Wind_Direction
159 155 155 161 162 167 165 156 154 144 128 133 126 122 115 110 105 101 102 112 120 123 118 108 103 103 100 99 94 88 84 81 78 75 72 68 64 61 59 56 54 50 47
165 166 160 160 162 173 173 160 154 134 126 133 126 125 123 115 110 108 109 116 117 117 119 110 108 108 104 100 99 91 83 79 76 72 69 69 68 64 60 57 53 48 45
172 169 167 170 174 176 168 160 142 119 114 126 126 127 124 118 112 110 115 108 101 103 111 112 113 109 108 105 95 96 90 85 77 80 78 73 70 67 62 61 56 52 46
174 172 175 178 174 167 171 161 155 136 126 128 127 124 119 119 117 115 118 118 111 109 111 116 115 109 106 107 105 101 96 89 88 82 75 75 73 69 64 60 56 52 46
176 177 180 181 173 170 173 165 159 145 134 129 125 117 120 126 127 123 117 121 120 117 116 119 113 109 109 112 109 111 102 97 92 86 82 77 74 68 64 62 56 52 48
177 179 178 171 174 174 170 168 151 131 140 135 129 112 118 130 131 138 136 136 136 131 124 118 113 111 113 114 114 111 108 104 97 92 86 83 76 72 65 60 60 55 50
179 180 177 168 175 176 176 164 147 140 124 131 111 85 43 61 132 147 152 145 146 140 136 127 114 105 105 106 114 117 111 102 96 93 88 80 73 72 69 64 59 56 52
180 180 176 182 180 172 168 168 158 151 127 164 148 115 140 73 38 140 147 161 158 151 143 136 125 118 112 93 103 114 110 105 99 92 84 81 76 72 68 64 60 54 53
183 183 177 176 176 174 173 173 169 173 167 178 166 137 148 188 132 116 199 162 155 155 161 142 134 131 127 121 119 108 91 101 106 104 98 90 80 71 69 61 59 56 51
182 182 178 175 177 176 179 181 177 178 170 180 185 156 123 140 163 146 247 208 157 149 144 147 133 131 135 133 125 116 104 108 108 106 101 92 85 78 69 63 58 56 52
181 181 176 178 181 182 183 179 180 183 183 182 189 139 117 89 103 137 161 169 88 166 147 143 141 141 143 139 133 128 117 109 106 104 95 93 87 82 71 61 56 53 52
181 177 181 183 182 182 184 185 184 187 187 192 195 165 172 165 170 145 135 164 161 179 138 140 146 145 147 145 145 139 129 123 120 115 104 93 89 80 74 64 57 52 49
190 187 183 182 181 184 184 183 183 185 189 193 194 186 173 168 135 125 133 154 152 111 124 114 155 151 155 154 152 145 140 133 127 119 106 102 92 82 76 69 62 57 54
191 184 183 179 176 178 180 184 185 187 188 191 191 184 173 165 150 152 153 148 125 147 144 158 126 161 151 155 154 149 144 138 131 121 128 112 99 85 76 73 67 61 59
184 177 184 179 174 177 176 179 186 181 182 190 178 173 142 151 133 143 155 166 154 159 176 187 139 177 161 164 159 150 146 147 135 141 133 111 100 90 81 72 68 62 58
176 168 171 177 176 179 177 180 183 173 167 151 147 146 138 138 141 146 160 178 172 131 155 150 143 159 165 156 158 153 151 143 146 149 138 119 104 95 88 81 72 68 62
160 165 166 168 170 168 166 173 160 150 150 141 143 149 150 136 148 155 161 158 143 127 130 108 103 159 150 153 151 159 151 147 152 156 142 125 114 106 93 86 79 72 64
161 165 164 158 150 148 151 147 148 136 132 127 121 117 114 95 97 134 157 174 161 163 123 138 141 159 158 166 158 152 149 161 160 162 147 131 126 119 108 93 83 78 71
157 157 157 152 153 155 151 156 151 153 157 158 161 159 154 144 152 162 173 170 145 146 119 128 145 163 137 155 151 150 160 159 175 165 153 147 144 134 119 103 89 80 72
151 152 156 152 154 155 155 156 161 165 163 163 154 164 159 170 181 184 170 153 133 137 125 156 154 169 160 163 161 159 160 162 181 171 168 167 159 149 122 105 99 81 69
137 137 136 138 146 153 161 164 166 169 168 165 167 175 181 188 188 183 170 159 156 138 154 167 161 162 168 170 176 165 158 157 143 174 157 180 173 157 141 119 104 91 73
131 138 148 152 157 167 166 164 163 166 170 172 173 180 181 183 177 179 181 172 171 162 172 165 170 180 181 171 155 160 153 166 188 194 139 199 172 169 159 165 150 109 85
126 128 130 140 147 137 155 157 154 161 167 174 173 174 170 164 142 149 201 169 173 186 177 171 175 182 169 176 159 163 172 169 152 177 142 156 147 175 180 188 173 127 108
141 141 143 145 148 160 164 165 159 161 167 173 174 178 164 151 153 154 126 98 91 70 40 323 181 174 155 160 167 159 153 107 79 66 132 148 233 171 192 207 194 165 147
133 145 150 148 153 155 164 160 161 158 161 168 167 164 154 158 169 162 156 148 129 110 122 129 123 133 146 145 138 126 150 152 109 212 269 117 206 123 160 223 210 195 199
132 132 127 150 156 151 170 168 164 163 171 171 168 178 172 167 166 170 167 159 143 142 131 119 115 119 129 139 144 157 156 163 114 115 218 127 139 124 292 232 208 216 217